Regional Weather Roundup
Issued by NWS

Home | Current Version | Previous Version | Text Only | Print | Product List | Glossary On
Versions: 1 2 3 4 5 6 7 8 9 10 11 12 13 14 15 16 17 18 19 20 21 22 23 24 25 26 27 28
000
ASUS45 KSLC 190710
RWRUT

UTAH REGIONAL WEATHER ROUNDUP
NATIONAL WEATHER SERVICE SALT LAKE CITY UT
100 AM MDT SAT APR 19 2014

UTZ001>011-023>025-190800-

NORTHERN UTAH

CITY           SKY/WX    TMP DP  RH WIND       PRES   REMARKS
HILL AFB       CLOUDY    51  39  65 NW8       29.98S
LOGAN          CLOUDY    41  37  86 CALM      30.01S
OGDEN          CLOUDY    51  40  65 N5        29.97S
PROVO AIRPORT  MOCLDY    48  43  81 SE6       29.99S
SALT LAKE CITY PTCLDY    48  47  96 W3        29.97S
VERNAL         CLOUDY    60  25  26 S13G20    29.97R
WENDOVER       CLOUDY    55  36  47 N16       29.97F
HEBER CITY     MOCLDY    39  30  70 CALM      30.01S
WEST JORDAN    CLEAR     50  43  76 W5        29.98F

$$

UTZ012>022-026-027-190800-

SOUTHERN UTAH

CITY           SKY/WX    TMP DP  RH WIND       PRES   REMARKS
BRYCE CANYON   CLOUDY    36  25  64 CALM      30.12S
CEDAR CITY     CLOUDY    49  26  41 SE5       30.02S
MILFORD        MOCLDY    53  25  33 S13       29.99R
MOAB/CYNLANDS  CLOUDY    64  32  30 S8G22     29.98R
PRICE          CLOUDY    59  24  26 CALM      30.01R
ST GEORGE      PTSUNNY   66  30  26 E12       29.94R
KANAB          MOCLDY    54  32  43 CALM      30.07R

$$

REGIONAL REPORTS     COLORADO/ARIZONA

CITY           SKY/WX    TMP DP  RH WIND       PRES   REMARKS
CRAIG, CO      PTCLDY    42  33  70 CALM      30.03R
GRAND JUNCTION CLOUDY    61  31  32 W7        30.01R
RIFLE          CLOUDY    58  30  34 S8        30.02R
MONTROSE       CLOUDY    59  29  31 S8        30.06R
CORTEZ         CLOUDY    55  37  50 S12       30.13R
PAGE, AZ       CLOUDY    61  37  41 S16G24    30.00S
GRAND CANYON   CLOUDY    44  39  82 S6        30.13S
KINGMAN        LGT RAIN  55  47  74 SE13      30.01R
FLAGSTAFF      MOCLDY    40  38  93 CALM      30.13S

$$

REGIONAL REPORTS    NEVADA/IDAHO/WYOMING

CITY           SKY/WX    TMP DP  RH WIND       PRES   REMARKS
LAS VEGAS, NV  CLOUDY    72  34  24 S14       29.84R
ELY            PTCLDY    48  24  39 SW10      30.02S
ELKO           PTCLDY    47  24  40 E5        29.99R
POCATELLO, ID  CLEAR     44  15  31 SW8       30.01R
BURLEY         CLEAR     38  30  73 SW9       30.00S WCI  31
EVANSTON, WY   MOCLDY    43  32  65 CALM      30.07S
ROCK SPRINGS   CLOUDY    46  31  55 SW10      30.03S

$$



USA.gov is the U.S. government's official web portal to all federal, state and local government web resources and services.